• In Kazakhstan
  • List of Countries
  • For 7 days
  • Water Temperature
  • Weather Map
  • News
  • Weather Widgets
  • user-avatar
    Login

    Hourly Weather Ali Bayramli

    Today, 25 August, Sunday

    Time Temperature Precipitation Wind Pressure Humidity
    00:00 +28°C° 0 mm 3 mps 757 mmHg 44%
    01:00 +28°C° 0 mm 3 mps 756 mmHg 43%
    02:00 +27°C° 0 mm 3 mps 756 mmHg 42%
    03:00 +27°C° 0 mm 3 mps 757 mmHg 43%
    04:00 +27°C° 0 mm 3 mps 757 mmHg 45%
    05:00 +27°C° 0 mm 2 mps 757 mmHg 48%
    06:00 +27°C° 0 mm 2 mps 757 mmHg 51%
    07:00 +30°C° 0 mm 2 mps 757 mmHg 44%
    08:00 +32°C° 0 mm 2 mps 757 mmHg 38%
    09:00 +36°C° 0 mm 4 mps 758 mmHg 31%
    10:00 +37°C° 0 mm 5 mps 757 mmHg 27%
    11:00 +39°C° 0 mm 6 mps 757 mmHg 22%
    12:00 +40°C° 0 mm 6 mps 757 mmHg 18%
    13:00 +39°C° 0 mm 7 mps 756 mmHg 17%
    14:00 +39°C° 0 mm 7 mps 756 mmHg 16%
    15:00 +39°C° 0 mm 7 mps 756 mmHg 15%
    16:00 +36°C° 0 mm 6 mps 756 mmHg 19%
    17:00 +34°C° 0 mm 6 mps 756 mmHg 22%
    18:00 +32°C° 0 mm 5 mps 756 mmHg 26%
    19:00 +30°C° 0 mm 4 mps 757 mmHg 34%
    20:00 +28°C° 0 mm 3 mps 757 mmHg 42%
    21:00 +26°C° 0 mm 3 mps 757 mmHg 50%
    22:00 +26°C° 0 mm 3 mps 757 mmHg 49%
    23:00 +26°C° 0 mm 3 mps 757 mmHg 49%

    Tomorrow, 26 August, Monday

    Time Temperature Precipitation Wind Pressure Humidity
    00:00 +25°C° 0 mm 3 mps 757 mmHg 49%
    01:00 +25°C° 0 mm 3 mps 757 mmHg 46%
    02:00 +25°C° 0 mm 3 mps 758 mmHg 43%
    03:00 +25°C° 0 mm 2 mps 758 mmHg 40%
    04:00 +25°C° 0 mm 2 mps 758 mmHg 39%
    05:00 +25°C° 0 mm 2 mps 758 mmHg 38%
    06:00 +25°C° 0 mm 2 mps 758 mmHg 37%
    07:00 +28°C° 0 mm 3 mps 758 mmHg 30%
    08:00 +31°C° 0 mm 3 mps 759 mmHg 24%
    09:00 +34°C° 0 mm 4 mps 759 mmHg 17%
    10:00 +36°C° 0 mm 5 mps 759 mmHg 16%
    11:00 +37°C° 0 mm 5 mps 759 mmHg 15%
    12:00 +39°C° 0 mm 6 mps 759 mmHg 14%
    13:00 +39°C° 0 mm 7 mps 759 mmHg 16%
    14:00 +39°C° 0 mm 8 mps 759 mmHg 17%
    15:00 +39°C° 0 mm 10 mps 758 mmHg 18%
    16:00 +37°C° 0 mm 10 mps 759 mmHg 21%
    17:00 +36°C° 0 mm 11 mps 759 mmHg 24%
    18:00 +33°C° 0 mm 12 mps 759 mmHg 28%
    19:00 +32°C° 0 mm 12 mps 760 mmHg 29%
    20:00 +31°C° 0 mm 13 mps 760 mmHg 30%
    21:00 +29°C° 0 mm 13 mps 761 mmHg 31%
    22:00 +29°C° 0 mm 12 mps 761 mmHg 33%
    23:00 +28°C° 0 mm 11 mps 761 mmHg 34%

    Day after tomorrow, 27 August, Tuesday

    Time Temperature Precipitation Wind Pressure Humidity
    00:00 +27°C° 0 mm 10 mps 761 mmHg 35%
    01:00 +27°C° 0 mm 8 mps 761 mmHg 38%
    02:00 +26°C° 0 mm 6 mps 761 mmHg 40%
    03:00 +26°C° 0 mm 4 mps 761 mmHg 42%
    04:00 +26°C° 0 mm 3 mps 760 mmHg 45%
    05:00 +25°C° 0 mm 2 mps 760 mmHg 48%
    06:00 +25°C° 0 mm 1 mps 760 mmHg 50%
    07:00 +27°C° 0 mm 2 mps 760 mmHg 45%
    08:00 +29°C° 0 mm 3 mps 760 mmHg 40%
    09:00 +32°C° 0 mm 4 mps 760 mmHg 35%
    10:00 +33°C° 0 mm 5 mps 759 mmHg 33%
    11:00 +34°C° 0 mm 5 mps 759 mmHg 31%
    12:00 +35°C° 0 mm 6 mps 759 mmHg 30%
    13:00 +35°C° 0 mm 6 mps 758 mmHg 29%
    14:00 +35°C° 0 mm 6 mps 757 mmHg 29%
    15:00 +35°C° 0 mm 6 mps 757 mmHg 28%
    16:00 +33°C° 0 mm 6 mps 757 mmHg 32%
    17:00 +32°C° 0 mm 6 mps 757 mmHg 36%
    18:00 +30°C° 0 mm 6 mps 757 mmHg 40%
    19:00 +28°C° 0.1 mm 5 mps 757 mmHg 45%
    20:00 +27°C° 0.1 mm 5 mps 757 mmHg 50%
    21:00 +26°C° 0.1 mm 4 mps 757 mmHg 55%
    22:00 +25°C° 0 mm 4 mps 757 mmHg 56%
    23:00 +25°C° 0 mm 3 mps 757 mmHg 58%

    28 August, Wednesday

    Time Temperature Precipitation Wind Pressure Humidity
    00:00 +25°C° 0 mm 3 mps 757 mmHg 59%
    01:00 +24°C° 0 mm 2 mps 757 mmHg 60%
    02:00 +23°C° 0 mm 2 mps 757 mmHg 61%
    03:00 +23°C° 0 mm 2 mps 756 mmHg 63%
    04:00 +23°C° 0 mm 2 mps 757 mmHg 62%
    05:00 +23°C° 0 mm 2 mps 757 mmHg 61%
    06:00 +23°C° 0 mm 2 mps 757 mmHg 60%
    07:00 +25°C° 0 mm 2 mps 757 mmHg 53%
    08:00 +27°C° 0 mm 2 mps 757 mmHg 46%
    09:00 +29°C° 0 mm 2 mps 758 mmHg 39%
    10:00 +31°C° 0 mm 2 mps 757 mmHg 35%
    11:00 +32°C° 0 mm 1 mps 757 mmHg 31%
    12:00 +34°C° 0 mm 1 mps 757 mmHg 26%
    13:00 +35°C° 0 mm 3 mps 757 mmHg 28%
    14:00 +35°C° 0 mm 4 mps 757 mmHg 29%
    15:00 +35°C° 0 mm 6 mps 756 mmHg 31%
    16:00 +34°C° 0 mm 6 mps 756 mmHg 33%
    17:00 +32°C° 0 mm 6 mps 756 mmHg 35%
    18:00 +29°C° 0 mm 7 mps 756 mmHg 37%
    19:00 +28°C° 0 mm 5 mps 757 mmHg 45%
    20:00 +27°C° 0 mm 4 mps 757 mmHg 52%
    21:00 +25°C° 0 mm 3 mps 758 mmHg 59%
    22:00 +25°C° 0 mm 3 mps 758 mmHg 60%
    23:00 +24°C° 0 mm 2 mps 758 mmHg 61%

    29 August, Thursday

    Time Temperature Precipitation Wind Pressure Humidity
    00:00 +24°C° 0 mm 2 mps 758 mmHg 61%
    01:00 +23°C° 0 mm 1 mps 758 mmHg 63%
    02:00 +23°C° 0 mm 1 mps 758 mmHg 65%
    03:00 +22°C° 0 mm 1 mps 758 mmHg 67%
    04:00 +23°C° 0 mm 1 mps 758 mmHg 64%
    05:00 +24°C° 0 mm 1 mps 758 mmHg 61%
    06:00 +24°C° 0 mm 1 mps 758 mmHg 58%
    07:00 +26°C° 0 mm 1 mps 758 mmHg 52%
    08:00 +28°C° 0 mm 1 mps 758 mmHg 45%
    09:00 +30°C° 0 mm 2 mps 758 mmHg 39%
    10:00 +33°C° 0 mm 3 mps 758 mmHg 35%
    11:00 +34°C° 0 mm 4 mps 757 mmHg 31%
    12:00 +36°C° 0 mm 6 mps 757 mmHg 26%
    13:00 +35°C° 0 mm 7 mps 757 mmHg 27%
    14:00 +34°C° 0 mm 7 mps 757 mmHg 28%
    15:00 +34°C° 0 mm 8 mps 756 mmHg 29%
    16:00 +32°C° 0 mm 9 mps 757 mmHg 38%
    17:00 +29°C° 0 mm 9 mps 757 mmHg 47%
    18:00 +27°C° 0 mm 10 mps 757 mmHg 56%
    19:00 +26°C° 0 mm 10 mps 758 mmHg 60%
    20:00 +24°C° 0 mm 10 mps 758 mmHg 64%
    21:00 +23°C° 0 mm 10 mps 759 mmHg 68%
    22:00 +23°C° 0.2 mm 10 mps 759 mmHg 68%
    23:00 +22°C° 0.2 mm 9 mps 759 mmHg 69%

    30 August, Friday

    Time Temperature Precipitation Wind Pressure Humidity
    00:00 +22°C° 0.2 mm 8 mps 759 mmHg 69%
    01:00 +22°C° 0.1 mm 8 mps 759 mmHg 69%
    02:00 +21°C° 0.1 mm 8 mps 759 mmHg 68%
    03:00 +21°C° 0.1 mm 7 mps 759 mmHg 68%
    04:00 +21°C° 0 mm 8 mps 759 mmHg 67%
    05:00 +21°C° 0 mm 8 mps 759 mmHg 66%
    06:00 +22°C° 0 mm 8 mps 759 mmHg 64%
    07:00 +22°C° 0 mm 8 mps 759 mmHg 62%
    08:00 +22°C° 0 mm 8 mps 759 mmHg 59%
    09:00 +23°C° 0 mm 8 mps 759 mmHg 57%
    10:00 +23°C° 0.1 mm 8 mps 759 mmHg 55%
    11:00 +24°C° 0.1 mm 8 mps 759 mmHg 54%
    12:00 +26°C° 0.1 mm 8 mps 759 mmHg 53%
    13:00 +26°C° 0.1 mm 7 mps 759 mmHg 52%
    14:00 +26°C° 0.1 mm 7 mps 759 mmHg 51%
    15:00 +26°C° 0.1 mm 6 mps 759 mmHg 51%
    16:00 +24°C° 0.1 mm 6 mps 759 mmHg 53%
    17:00 +25°C° 0.1 mm 5 mps 759 mmHg 56%
    18:00 +23°C° 0.1 mm 5 mps 758 mmHg 58%
    19:00 +22°C° 0.1 mm 5 mps 759 mmHg 60%
    20:00 +22°C° 0.1 mm 5 mps 759 mmHg 62%
    21:00 +21°C° 0.1 mm 5 mps 759 mmHg 64%
    22:00 +21°C° 0.1 mm 5 mps 759 mmHg 63%
    23:00 +21°C° 0.1 mm 5 mps 759 mmHg 63%
    Show more